Weather History for Juliana Airport, Saint Maarten, Saint Maartin

Change the Weather History Date:

Wednesday, January 2, 2013

  Actual Average Record
Temperature  
Mean Temperature 80 °F -  
Max Temperature 84 °F 81 °F - ()
Min Temperature 75 °F 72 °F - ()
Cooling Degree Days 14    
Growing Degree Days 30 (Base 50)    
Moisture  
Dew Point 66 °F    
Average Humidity 63    
Maximum Humidity 74    
Minimum Humidity 48    
Precipitation  
Precipitation 0.04 in 0.08 in - ()
Sea Level Pressure  
Sea Level Pressure 30.03 in    
Wind  
Wind Speed 10 mph ()    
Max Wind Speed 15 mph    
Max Gust Speed -    
Visibility 6.7 miles    
Events Rain    
T = Trace of Precipitation, MM = Missing Value Source: Averaged Metar Reports

Daily Weather History Graph

Daily Weather History Graph

Search for Another Location

Airport:

Trip Planner

Search our weather history database for the weather conditions in past years. The results will help you decide how hot, cold, wet, or windy it might be!

Date:

Astronomy

Jan. 02, 2013 Rise Set
Actual Time 6:44 AM AST 5:49 PM AST
Civil Twilight 6:20 AM AST 6:12 PM AST
Nautical Twilight 5:53 AM AST 6:39 PM AST
Astronomical Twilight 5:26 AM AST 7:06 PM AST
Moon 10:27 PM AST (1/2) 10:08 AM AST (1/2)
Length of Visible Light 11h 51m
Length of Day
11h 04m
Waning Gibbous, 75% of the Moon is Illuminated
Jan 2
Waning Gibbous
Jan 4
Last Quarter
Jan 11
New
Jan 18
First Quarter
Jan 27
Full

Hourly Weather History & Observations

Time (AST) Temp. Heat Index Dew Point Humidity Pressure Visibility Wind Dir Wind Speed Gust Speed Precip Events Conditions
12:00 AM 77.0 °F - 66.2 °F 69% 30.04 in 6.2 mi East 15.0 mph - N/A   Partly Cloudy
1:00 AM 77.0 °F - 64.4 °F 65% 30.01 in 6.2 mi East 12.7 mph - N/A   Partly Cloudy
2:00 AM 77.0 °F - 64.4 °F 65% 30.01 in 6.2 mi East 10.4 mph - N/A   Partly Cloudy
3:00 AM 77.0 °F - 62.6 °F 61% 29.98 in 6.2 mi East 11.5 mph - N/A   Partly Cloudy
4:00 AM 77.0 °F - 62.6 °F 61% 29.98 in 6.2 mi East 10.4 mph - N/A   Partly Cloudy
5:00 AM 75 °F - 62 °F 56% 30.01 in 31 mi East 9.2 mph - -   Scattered Clouds
5:00 AM 75.2 °F - 62.6 °F 65% 30.01 in 6.2 mi East 9.2 mph - N/A   Partly Cloudy
6:00 AM 75.2 °F - 62.6 °F 65% 30.01 in 6.2 mi East 9.2 mph - N/A   Partly Cloudy
7:00 AM 77.0 °F - 62.6 °F 61% 30.01 in 6.2 mi ESE 11.5 mph - N/A   Partly Cloudy
8:00 AM 78 °F - 62 °F 48% 30.05 in 44 mi ESE 12.7 mph - -   Scattered Clouds
8:00 AM 77.0 °F - 62.6 °F 61% 30.04 in 6.2 mi ESE 12.7 mph - N/A   Partly Cloudy
9:00 AM 80.6 °F 81.8 °F 62.6 °F 54% 30.06 in 6.2 mi ESE 9.2 mph - N/A   Scattered Clouds
10:00 AM 80.6 °F 81.8 °F 62.6 °F 54% 30.06 in 6.2 mi ESE 11.5 mph - N/A   Partly Cloudy
11:00 AM 82 °F - 65 °F 48% 30.07 in 44 mi SE 11.5 mph - -   Scattered Clouds
11:00 AM 82.4 °F 83.9 °F 64.4 °F 54% 30.06 in 6.2 mi ESE 10.4 mph - N/A   Partly Cloudy
12:00 PM 82.4 °F 84.6 °F 66.2 °F 58% 30.04 in 6.2 mi East 9.2 mph - N/A   Scattered Clouds
1:00 PM 82.4 °F 85.4 °F 68.0 °F 62% 30.01 in 6.2 mi East 10.4 mph - N/A   Scattered Clouds
2:00 PM 84 °F - 67 °F 48% 30.01 in 28 mi East 11.5 mph - - Rain Light Rain Showers
2:00 PM 82.4 °F 84.6 °F 66.2 °F 58% 30.01 in 6.2 mi East 11.5 mph - N/A   Partly Cloudy
3:00 PM 82.4 °F 84.6 °F 66.2 °F 58% 30.01 in 6.2 mi East 12.7 mph - N/A   Scattered Clouds
4:00 PM 82.4 °F 86.3 °F 69.8 °F 66% 29.98 in 6.2 mi East 13.8 mph - N/A   Mostly Cloudy
5:00 PM 80 °F - 69 °F 61% 30.00 in 28 mi ESE 10.4 mph - -   Scattered Clouds
5:00 PM 80.6 °F 83.2 °F 68.0 °F 65% 29.98 in 6.2 mi ESE 10.4 mph - N/A   Partly Cloudy
6:00 PM 78.8 °F - 69.8 °F 74% 30.01 in 6.2 mi East 8.1 mph - N/A   Partly Cloudy
7:00 PM 78.8 °F - 69.8 °F 74% 30.04 in 6.2 mi East 6.9 mph - N/A Rain Light Rain Showers
8:00 PM 79 °F - 70 °F 66% 30.05 in 28 mi East 13.8 mph - - Rain Light Rain Showers
8:00 PM 78.8 °F - 69.8 °F 74% 30.04 in 6.2 mi East 12.7 mph - N/A   Partly Cloudy
9:00 PM 78.8 °F - 69.8 °F 74% 30.04 in 6.2 mi East 11.5 mph - N/A   Partly Cloudy
10:00 PM 78.8 °F - 69.8 °F 74% 30.06 in 6.2 mi East 12.7 mph - N/A Rain Light Rain Showers
11:00 PM 78 °F - 70 °F 69% 30.06 in 19 mi East 11.5 mph - - Rain Light Rain Showers
11:00 PM 78.8 °F - 69.8 °F 74% 30.04 in 6.2 mi East 11.5 mph - N/A   Scattered Clouds